[[{"header":{"parameterUnit":"m.s-1","parameterCategory":1,"la1":30.2991,"la2":30.254,"lo1":-89.0895,"lo2":-89.0444,"dy":0.0017,"dx":0.0017,"nx":28,"ny":28,"refTime":"2024-05-25T03:00:00:Z","depth":0,"parameterNumber":2,"parameterNumberName":"U-component_of_WINDS"},"data":[0,0,0,0,0,0,0,0,0,0,0,0,0,0,0,0,0,0,0,0,0,0,0,0,0,0,0,0,0,0,0,0,0,0,0,0,0,0,0,0,0,0,0,0,0,0,0,0,0,0,0,0,0,0,0,0,0,0,1.1594,1.1594,0,1.1626,1.1627,1.1627,1.1608,1.1607,1.1606,1.1605,1.1639,1.1641,1.1642,0,0,0,0,0,0,0,0,0,0,0,0,0,1.1515,1.1516,1.1594,1.1594,1.1595,1.1626,1.1627,1.1627,1.1608,1.1607,1.1605,1.1604,1.1638,1.164,1.1643,0,0,0,0,0,0,0,0,0,0,0,0,0,1.1549,1.1517,1.1594,1.1589,1.1589,1.1626,1.1627,1.1627,1.1608,1.1607,1.1605,1.1604,1.1638,1.164,1.1643,1.1688,0,0,1.1651,1.1652,0,0,0,0,0,0,0,0,1.1547,1.1551,1.1589,1.1589,1.1589,1.1612,1.1611,1.1648,1.1608,1.1601,1.1605,1.1603,1.1631,1.1634,1.1643,1.1689,1.1691,1.1651,1.1653,1.1654,1.1655,0,0,0,0,0,0,0,1.1544,1.155,1.1607,1.159,1.159,1.1585,1.1588,1.1618,1.1623,1.1601,1.16,1.1604,1.1631,1.1641,1.1644,1.1691,1.1651,1.1654,1.1655,1.1656,1.1773,1.1774,0,0,0,0,0,0,1.1542,1.1548,1.1606,1.1608,1.1564,1.1587,1.1591,1.1606,1.1623,1.1624,1.1605,1.1603,1.1637,1.1641,1.1645,1.1697,1.1654,1.1657,1.1658,1.1771,1.1773,1.1775,0,0,0,0,0,0,1.1541,1.1548,1.1605,1.1578,1.1584,1.159,1.1607,1.1607,1.1617,1.1626,1.1627,1.1614,1.1636,1.1641,1.1677,1.1698,1.1658,1.166,1.177,1.1772,1.1774,1.1802,0,0,0,0,0,0,1.1539,1.1547,1.1564,1.1578,1.1586,1.1636,1.1608,1.1609,1.1622,1.1619,1.1635,1.1636,1.1635,1.1673,1.1679,1.1701,1.1662,1.1768,1.1771,1.1773,1.1799,1.1805,1.1809,0,0,0,0,0,1.1536,1.1572,1.1565,1.1573,1.1608,1.1637,1.1641,1.1639,1.1624,1.1641,1.1646,1.1636,1.1695,1.1676,1.1684,1.1706,1.1766,1.177,1.1773,1.1797,1.1803,1.1809,0,0,0,0,0,0,1.1561,1.1573,1.1567,1.1608,1.1621,1.1634,1.1655,1.1647,1.1666,1.1663,1.166,1.1663,1.17,1.1707,1.1686,1.1749,1.1728,1.1733,1.1743,1.175,1.1755,1.1752,1.1664,0,0,0,0,0,1.1571,1.1594,1.1604,1.1639,1.1646,1.165,1.1662,1.1659,1.1673,1.1679,1.1687,1.1701,1.1722,1.1737,1.1757,1.18,1.1802,1.1819,1.1824,1.1829,1.1833,1.1854,1.1861,1.1786,1.1786,1.1786,0,0,1.1593,1.1603,1.1617,1.1645,1.1655,1.1678,1.1655,1.1681,1.1697,1.1683,1.1716,1.1723,1.1738,1.1776,1.1794,1.1784,1.1854,1.1833,1.1836,1.1838,1.1858,1.1865,1.1871,1.1788,1.1788,1.1787,0,0,1.1644,1.1654,1.1684,1.1694,1.1709,1.1711,1.1718,1.1731,1.1734,1.1768,1.1757,1.1777,1.1814,1.1825,1.1836,1.1889,1.1879,1.1896,1.1923,1.1944,1.195,1.1955,1.1972,1.1979,1.19,1.19,1.19,0,1.1669,1.1704,1.17,1.1726,1.1738,1.1726,1.1755,1.1765,1.1787,1.1795,1.1783,1.1828,1.1838,1.1878,1.189,1.19,1.1907,1.1894,1.1949,1.1954,1.1959,1.1976,1.1982,1.1902,1.1901,1.1901,1.1901,0,1.1733,1.1757,1.1779,1.1799,1.1813,1.1841,1.1841,1.1856,1.1852,1.1855,1.1888,1.1898,1.192,1.1929,1.1926,1.1968,1.1961,1.1949,1.1928,1.1968,1.1983,1.199,1.1904,1.1903,1.1903,1.1903,0,0,1.1801,1.1817,1.1826,1.1833,1.1849,1.1867,1.1894,1.1914,1.1926,1.1941,1.1963,1.1994,1.1982,1.1994,1.1992,1.201,1.2049,1.1995,1.1996,1.2004,1.2095,1.2103,1.211,1.2043,1.2045,1.2046,1.2093,0,1.1852,1.1898,1.1895,1.1938,1.196,1.1947,1.197,1.1982,1.1985,1.2003,1.2007,1.2028,1.2012,1.2019,1.2036,1.2041,1.2067,1.2037,1.2063,1.2064,1.2058,1.2119,1.2128,1.2172,1.2099,1.21,1.2101,0,1.1917,1.1933,1.1978,1.1988,1.1997,1.2018,1.2035,1.2053,1.2066,1.2066,1.2079,1.2073,1.2099,1.2077,1.2112,1.2092,1.2102,1.2106,1.2107,1.2109,1.2084,1.2121,1.2186,1.2192,1.2111,1.211,1.2109,0,1.196,1.1993,1.2024,1.2031,1.2044,1.2059,1.2065,1.2076,1.2088,1.2103,1.2111,1.2129,1.2139,1.2153,1.2152,1.2137,1.2188,1.2166,1.2188,1.2188,1.2199,1.2198,1.2266,1.2208,1.2208,1.2207,1.2207,0,1.2016,1.2044,1.2043,1.2062,1.2092,1.2088,1.2119,1.2123,1.2133,1.2152,1.2143,1.2161,1.2159,1.2177,1.2176,1.2204,1.221,1.221,1.221,1.221,1.221,1.2216,1.2213,1.2209,1.2209,1.2208,1.2208,0,1.2069,1.207,1.2102,1.2112,1.2115,1.2136,1.2144,1.2162,1.2164,1.2188,1.2193,1.2196,1.2217,1.2217,1.2241,1.224,1.2275,1.2271,1.227,1.2269,1.2291,1.2288,1.2364,1.2373,1.231,1.2311,1.2311,0,1.2104,1.2125,1.2136,1.2148,1.2155,1.2175,1.2186,1.2183,1.2196,1.221,1.2226,1.2245,1.2261,1.2294,1.2298,1.2316,1.2312,1.2337,1.2314,1.2314,1.231,1.2309,1.231,1.2341,1.2342,1.2343,1.2343,0,1.2166,1.2165,1.2182,1.2199,1.2213,1.2226,1.2238,1.2248,1.2246,1.2261,1.2281,1.2293,1.2317,1.2336,1.2352,1.2359,1.235,1.235,1.2356,1.2356,1.2354,1.2354,1.2281,1.2348,1.2348,1.2347,1.2347,1.2347,1.221,1.2228,1.2238,1.2256,1.2265,1.2276,1.2292,1.2296,1.2313,1.2331,1.2329,1.2351,1.2361,1.2383,1.239,1.2408,1.2399,1.2408,1.241,1.2412,1.2413,1.2353,1.2411,1.2411,1.2411,1.2411,1.241,0,1.227,1.2276,1.2293,1.231,1.2324,1.2315,1.2327,1.234,1.236,1.237,1.2385,1.2408,1.2426,1.2431,1.2448,1.2461,1.2457,1.2465,1.2464,1.2465,1.2421,1.2413,1.2468,1.2468,1.2468,1.2468,1.2468,1.2468,1.2303,1.2331,1.2331,1.2363,1.2368,1.239,1.2397,1.2407,1.2415,1.2441,1.2455,1.2458,1.2466,1.2484,1.25,1.2501,1.2507,1.2516,1.2515,1.2474,1.2468,1.2463,1.2456,1.2518,1.2518,1.2558,1.2558,1.2559]},{"header":{"parameterUnit":"m.s-1","parameterCategory":1,"la1":30.2991,"la2":30.254,"lo1":-89.0895,"lo2":-89.0444,"dy":0.0017,"dx":0.0017,"nx":28,"ny":28,"refTime":"2024-05-25T03:00:00:Z","depth":0,"parameterNumber":3,"parameterNumberName":"V-component_of_WINDS"},"data":[0,0,0,0,0,0,0,0,0,0,0,0,0,0,0,0,0,0,0,0,0,0,0,0,0,0,0,0,0,0,0,0,0,0,0,0,0,0,0,0,0,0,0,0,0,0,0,0,0,0,0,0,0,0,0,0,0,0,5.3721,5.3723,0,5.3923,5.3925,5.3927,5.3938,5.3936,5.3933,5.3931,5.4133,5.414,5.4148,0,0,0,0,0,0,0,0,0,0,0,0,0,5.3338,5.3345,5.372,5.3723,5.3725,5.3923,5.3925,5.3928,5.3938,5.3936,5.3933,5.393,5.4131,5.414,5.4149,0,0,0,0,0,0,0,0,0,0,0,0,0,5.3519,5.3348,5.372,5.3754,5.376,5.3922,5.3925,5.3929,5.3939,5.3935,5.3932,5.3929,5.4128,5.4139,5.415,5.429,0,0,5.4184,5.4189,0,0,0,0,0,0,0,0,5.3509,5.3533,5.3747,5.3752,5.3758,5.3902,5.3865,5.405,5.394,5.3871,5.3931,5.3927,5.4059,5.4075,5.4121,5.4299,5.4308,5.4185,5.4192,5.4197,5.42,0,0,0,0,0,0,0,5.3496,5.3524,5.38,5.375,5.3757,5.3758,5.378,5.39,5.3982,5.3876,5.3878,5.3902,5.4061,5.411,5.4126,5.4311,5.4185,5.4195,5.4202,5.4207,5.4615,5.4618,0,0,0,0,0,0,5.3477,5.3514,5.3794,5.3806,5.3622,5.3768,5.3792,5.3859,5.398,5.3996,5.3905,5.3902,5.4092,5.4112,5.4133,5.4305,5.4197,5.4208,5.4214,5.4611,5.4615,5.462,0,0,0,0,0,0,5.3469,5.3502,5.3786,5.3661,5.3697,5.3779,5.3853,5.3865,5.3914,5.4002,5.4016,5.394,5.409,5.4117,5.4251,5.4312,5.4213,5.4223,5.4606,5.4612,5.4618,5.4651,0,0,0,0,0,0,5.3458,5.3499,5.3554,5.3662,5.3703,5.3902,5.3857,5.3871,5.3934,5.3932,5.4039,5.4053,5.409,5.4234,5.4262,5.4326,5.4232,5.4601,5.4609,5.4616,5.4644,5.4657,5.4668,0,0,0,0,0,5.3445,5.3554,5.3557,5.3591,5.3774,5.3906,5.3929,5.3971,5.3939,5.3994,5.4051,5.4049,5.4301,5.4248,5.428,5.4348,5.4597,5.4606,5.4615,5.4639,5.4654,5.4667,0,0,0,0,0,0,5.345,5.3569,5.3573,5.3722,5.3804,5.3907,5.3979,5.3986,5.4078,5.4072,5.4118,5.4142,5.4275,5.4325,5.4263,5.449,5.4445,5.4461,5.4452,5.4468,5.4479,5.4464,5.4241,0,0,0,0,0,5.3469,5.3568,5.3665,5.3787,5.3828,5.3896,5.3955,5.398,5.4066,5.4101,5.4167,5.4249,5.4347,5.441,5.4504,5.4651,5.4674,5.4714,5.4725,5.4735,5.4748,5.4829,5.4848,5.465,5.465,5.4649,0,0,5.3509,5.3586,5.3645,5.379,5.3856,5.3956,5.3925,5.4032,5.4106,5.4116,5.4248,5.4299,5.4394,5.4535,5.4601,5.4581,5.4808,5.4746,5.4753,5.4761,5.484,5.4859,5.4876,5.4656,5.4655,5.4654,0,0,5.3632,5.37,5.3809,5.3877,5.3978,5.4023,5.4049,5.4152,5.4187,5.4321,5.4331,5.4418,5.4585,5.4653,5.4709,5.4858,5.486,5.4887,5.4948,5.5027,5.5042,5.5056,5.5109,5.5128,5.49,5.49,5.49,0,5.3667,5.3819,5.3863,5.3971,5.4034,5.405,5.416,5.4223,5.4349,5.4392,5.4368,5.4579,5.4644,5.4801,5.4838,5.4883,5.4913,5.4875,5.5037,5.5051,5.5065,5.5116,5.5136,5.4902,5.4902,5.4902,5.4902,0,5.3858,5.3963,5.4039,5.4163,5.4235,5.4342,5.4402,5.4469,5.4487,5.4534,5.4669,5.4748,5.4859,5.4898,5.4917,5.5058,5.5043,5.5027,5.4984,5.5086,5.5135,5.5155,5.4906,5.4905,5.4905,5.4904,0,0,5.399,5.4138,5.4165,5.4222,5.4335,5.4417,5.4525,5.4635,5.4692,5.4779,5.487,5.5011,5.4998,5.5062,5.5088,5.5157,5.527,5.5134,5.5137,5.5156,5.5431,5.5442,5.5464,5.5272,5.5276,5.5279,5.5423,0,5.4126,5.4321,5.4363,5.4531,5.4628,5.4645,5.4739,5.4818,5.4864,5.4953,5.5003,5.5103,5.5078,5.5117,5.5186,5.5242,5.5326,5.5232,5.5356,5.536,5.5333,5.5489,5.5501,5.5633,5.5442,5.5446,5.5448,0,5.431,5.4403,5.458,5.4682,5.4724,5.4808,5.4913,5.4998,5.5087,5.5116,5.5188,5.5207,5.5319,5.527,5.5424,5.5359,5.5412,5.5447,5.5453,5.5467,5.541,5.5507,5.5676,5.5696,5.5478,5.5476,5.5474,0,5.4389,5.4558,5.4686,5.4734,5.4856,5.4914,5.4967,5.5054,5.5117,5.5208,5.525,5.5352,5.5408,5.5485,5.5531,5.5491,5.5682,5.5636,5.5708,5.5707,5.5747,5.5744,5.5928,5.5781,5.5781,5.5781,5.578,0,5.4535,5.4643,5.4724,5.4802,5.4924,5.4971,5.5089,5.5142,5.5218,5.5307,5.5326,5.5408,5.5464,5.5554,5.559,5.5712,5.5736,5.5762,5.577,5.5761,5.5757,5.5796,5.5788,5.5786,5.5785,5.5784,5.5783,0,5.4644,5.4702,5.4843,5.4947,5.4975,5.506,5.5148,5.5225,5.5272,5.5383,5.5412,5.5486,5.5592,5.5646,5.5777,5.5802,5.5939,5.5942,5.591,5.5913,5.5982,5.5975,5.6197,5.6228,5.6061,5.6062,5.6064,0,5.4734,5.4818,5.4931,5.4992,5.5047,5.5146,5.5211,5.5261,5.5328,5.5437,5.55,5.5608,5.5697,5.5866,5.593,5.6031,5.6036,5.6107,5.6051,5.6039,5.6037,5.6032,5.604,5.6117,5.6118,5.612,5.6121,0,5.4888,5.4912,5.5007,5.5113,5.5191,5.5275,5.5359,5.5408,5.547,5.5545,5.5655,5.5724,5.586,5.5966,5.6072,5.6125,5.6133,5.6138,5.616,5.6151,5.6129,5.6142,5.5937,5.6133,5.6131,5.6131,5.613,5.6129,5.499,5.5065,5.5157,5.5262,5.533,5.5408,5.5485,5.5543,5.5636,5.5752,5.5775,5.5891,5.5978,5.6122,5.6178,5.6269,5.6253,5.6285,5.6293,5.63,5.6303,5.6115,5.6288,5.6288,5.6287,5.6287,5.6287,0,5.5145,5.5205,5.5301,5.5418,5.55,5.5503,5.5595,5.5664,5.5767,5.5848,5.5936,5.6062,5.6166,5.6238,5.6343,5.6402,5.6408,5.6428,5.6424,5.6436,5.6311,5.6282,5.6421,5.6421,5.6421,5.6421,5.6421,5.6421,5.5235,5.5363,5.5399,5.556,5.5619,5.5735,5.5788,5.5859,5.5924,5.6065,5.6152,5.6199,5.6277,5.6388,5.6482,5.6501,5.6539,5.6558,5.6576,5.6459,5.6445,5.6431,5.6404,5.6566,5.6566,5.6693,5.6695,5.6696]}]]